Home   Weather   Trier   Past weeks

Flag for Germany Past Weather in Trier, Rhineland-Palatinate, Germany — Yesterday and Last 2 Weeks

Now
71 °F

Scattered clouds.


Feels Like: 77 °F
Forecast: 54 / 63 °F
Wind: 16 mph from Southwest

Location: Spangdahlem

Current Time: Sep 29, 2016 at 5:16:36 PM

Latest Report: Sep 29, 2016 at 3:58 PM


Visibility: N/A

Pressure: 29.99 "Hg

Humidity: 55%

Dew Point: 54 °F

Location of TrierLocation

Past Weather in Trier — Graph

°F

Trier Temperature Yesterday

Maximum temperature yesterday: 66 °F (at 3:58 PM)
Minimum temperature yesterday: 50 °F (at 4:58 AM)
Average temperature yesterday: 59 °F

High & Low Weather Summary for the Past Weeks

 TemperatureHumidityPressure
High86 °F (Sep 14, 3:58 PM)100% (Sep 16, 5:58 AM)30.37 "Hg (Sep 16, 5:58 AM)
Low40 °F (Sep 22, 7:58 AM)30% (Sep 14, 3:58 PM)29.75 "Hg (Sep 15, 4:58 AM)
Average59 °F74%30.09 "Hg
* Reported Sep 14 3:58 PM — Sep 29 3:58 PM, Trier, Weather by CustomWeather, © 2016

Note: Actual official high and low records may vary slightly from our data, if they occured in-between our weather recording intervals... More about our weather records

Advertising

Trier Weather History for the Previous 24 Hours

Scroll right to see more
 ConditionsComfort  
Time TempWeatherWind HumidityBarometerVisibility
3:58 PM
Thu, Sep 29
71 °FScattered clouds.16 mph55%29.99 "HgN/A
2:58 PM73 °FPassing clouds.17 mph53%30.01 "HgN/A
2:04 PM70 °FScattered clouds.20 mph60%30.08 "HgN/A
1:58 PM70 °FPartly sunny.22 mph60%30.03 "HgN/A
12:58 PM67 °FScattered clouds.16 mph66%30.06 "HgN/A
12:53 PM66 °FScattered clouds.17 mph68%30.11 "HgN/A
8:58 AM57 °FLow clouds.10 mph94%30.15 "HgN/A
7:58 AM57 °FLow clouds.9 mph94%30.15 "HgN/A
6:58 AM56 °FLow clouds.6 mph96%30.16 "HgN/A
5:58 AM55 °FLow clouds.7 mph100%30.17 "HgN/A
5:02 AM55 °FPassing clouds.6 mph94%30.24 "HgN/A
4:58 AM55 °FPassing clouds.6 mph94%30.19 "HgN/A
3:58 AM55 °FClear.6 mph94%30.21 "HgN/A
2:58 AM55 °FClear.9 mph95%30.22 "HgN/A
1:58 AM56 °FClear.8 mph92%30.24 "HgN/A
12:58 AM57 °FClear.8 mph90%30.26 "HgN/A
11:58 PM
Wed, Sep 28
58 °FClear.7 mph87%30.27 "HgN/A
10:58 PM58 °FClear.6 mph86%30.28 "HgN/A
9:58 PM58 °FClear.6 mph86%30.29 "HgN/A
8:58 PM61 °FClear.8 mph78%30.29 "HgN/A
7:58 PM62 °FClear.8 mph76%30.30 "HgN/A
6:58 PM64 °FSunny.9 mph68%30.29 "HgN/A
6:03 PM64 °FScattered clouds.15 mph68%30.33 "HgN/A
5:58 PM66 °FPartly sunny.17 mph66%30.29 "HgN/A
5:00 PM64 °FScattered clouds.14 mph68%30.34 "HgN/A
Weather by CustomWeather, © 2016

See weather overviewHow to use our weather pages